Погода в Перевальном

Россия / Республика Крым     44°50′23″N   34°19′20″E
темп.,
°C
ветер,
м/с
пор.,
м/с
влажн.,
%
обл.,
%
осадки,
мм/ч
давл.,
гПа
погр.,
м
14 апреля, ср
ср1400:00+2юв22940 0.0 102144
03:00+2юв22880 0.0 102037
06:00+2юв23904 0.0 101945
09:00+7юв4570100 0.0 1018361
12:00+9юв4561100 0.0 1016646
15:00+9юв3464100 0.0 1016611
18:00+5юв3495100 2.0 1016191
21:00+5юв349538 2.1 1016109
15 апреля, чт
чт1500:00+4юв349774 0.0 1016103
03:00+4юв349480 0.2 101583
06:00+4ю229538 1.1 101545
09:00+9зюз257521 1.2 1015684
12:00+11зюз595238 0.0 10151253
15:00+10з59544 0.0 10161054
18:00+8з35645 0.0 1017621
21:00+4з2286100 0.0 101738
16 апреля, пт
пт1600:00+3з228586 0.0 101730
03:00+1зсз239732 0.0 101861
06:00+1зсз229630 0.0 101954
09:00+6зюз23645 0.0 1018647
12:00+10зюз365158 0.0 10181576
15:00+9з4654100 0.0 10181472
18:00+7з36607 0.0 1019941
21:00+2з22954 0.0 102237
17 апреля, сб
сб1700:00+2з12822 0.0 102224
03:00+2з11773 0.0 102217
06:00+1вюв227575 0.0 102229
09:00+7юв1157100 0.0 1022398
12:00+10вюв2147100 0.0 10211107
15:00+11вюв214698 0.0 10201361
18:00+9в1255100 0.0 1020513
21:00+4вюв227699 0.0 102240
18 апреля, вс
вс1800:00+4вюв2269100 0.0 102153
03:00+5вюв234996 0.0 1019102
06:00+4вюв336294 0.0 101960
09:00+8юв346588 0.0 1017251
12:00+11вюв346593 0.0 1017363
15:00+14вюв346420 0.0 1016508
18:00+10вюв3483100 0.0 1016233
21:00+7вюв3499100 0.0 1017115